STARLINK-5750 (55594 NORAD) Tracking and Keplerian Element Data

This shows tracking and keplerian element data for the satellite.

Feedback or suggestion? Click here.




ElementValue
Catalog55594
NameSTARLINK-5750
Epoch Orbit654
Epoch Day85.25001157
Epoch Year2023
RAAN109.9331
Inclination42.9983
Eccentricity0.0001317
Argument of Perigee265.9579
Mean Anonmoly124.7597
Mean Motion15.08149691
Decay Rate-0.01213533
L11 55594U 23020AB 23085.25001157 -.01213533 00000+0 -84368-1 0 9993
L22 55594 42.9983 109.9331 0001317 265.9579 124.7597 15.08149691 6540



Live tracking and technical data element details for STARLINK-5750 (NORAD 55594). STARLINK-5750 can be tracked NOW for your location showing map with azimuth and elevation plus other details from your city location.







IsCatalogInMostPopularTable: catalog: 55594, numindb: -1

Insert: records affected: 1


GetName: 55594 STARLINK-5750

Hit Count: inserted at: Tue, 28 Mar 2023 02:05:18 GMT